"startDT [UTC]","vpos","CH4 [ppm]","stdev(CH4) [ppm]","CO2 [ppm]","stdev(CO2) [ppm]","H2O_reported [%]","stdev(H2O_reported)","CavityPressure [torr]","CavityTemp [C]","OutletValve","CH4_dry [ppm]","CO2_dry [ppm]","DasTemp [C]","EtalonTemp [C]","WarmBoxTemp [C]","MPVPosition","T_ECpre [C]","T_EC1 [C]","T_EC2 [C]","p_inlet [hPa]","p_in [hPa]","p_out [hPa]","T_inlet [C]","RH_inlet [%]","dwpt_inlet [C]","T_vent [C]","RH_vent [%]","dwpt_vent [C]","flow_vent [l min-1]","flow_inlet [l min-1]","dwpt_sample [C]","T_room [C]"
2015-10-27 00:00:00,0.0,1.93786,0.00146,401.173,0.063,0.1772,0.0019,140.001,45.000,31530.07113,1.94130,402.034,33.886,45.070,45.000,0.00,0.09,-272.74,-272.81,-7,518,-933,19.4,6.0,-19.1,19.7,6.0,-18.9,5.73,1.76,-14.0,26.1
2015-10-27 00:01:00,0.0,1.93895,0.00084,401.129,0.098,0.1763,0.0017,139.996,45.000,31528.07283,1.94230,401.986,33.879,45.070,45.000,0.00,0.09,-272.76,-272.81,-5,518,-933,19.4,6.0,-19.2,19.7,6.0,-18.9,5.73,2.11,-14.0,26.1
2015-10-27 00:02:00,0.0,1.93903,0.00044,401.038,0.051,0.1767,0.0016,139.997,45.000,31528.61142,1.94237,401.892,33.894,45.069,45.000,0.00,0.09,-272.75,-272.82,-6,518,-933,19.4,6.0,-19.1,19.7,6.0,-18.9,5.73,1.85,-14.0,26.1
2015-10-27 00:03:00,0.0,1.94054,0.00077,401.097,0.029,0.1757,0.0027,140.000,45.000,31529.86118,1.94388,401.946,33.902,45.069,45.000,0.00,0.09,-272.75,-272.80,-6,518,-933,19.4,6.0,-19.2,19.7,6.0,-18.9,5.73,1.98,-14.0,26.1
2015-10-27 00:04:00,0.0,1.93916,0.00078,401.268,0.087,0.1744,0.0041,140.001,45.000,31530.19129,1.94257,402.108,33.927,45.069,45.000,0.00,0.09,-272.75,-272.81,-5,518,-933,19.4,5.9,-19.3,19.7,5.9,-19.0,5.73,2.00,-14.0,26.1
2015-10-27 00:05:00,0.0,1.93893,0.00072,401.394,0.034,0.1684,0.0015,140.000,45.000,31530.64200,1.94214,402.209,33.919,45.069,45.000,0.00,0.09,-272.75,-272.80,-7,518,-933,19.4,5.7,-19.7,19.7,5.8,-19.3,5.73,1.83,-14.0,26.1
2015-10-27 00:06:00,0.0,1.93916,0.00076,401.357,0.072,0.1709,0.0028,139.997,45.000,31526.93563,1.94239,402.188,33.895,45.069,45.000,0.00,0.09,-272.75,-272.81,-5,518,-933,19.4,5.8,-19.6,19.7,5.8,-19.3,5.73,2.12,-14.0,26.1
2015-10-27 00:07:00,0.0,1.94031,0.00107,401.075,0.072,0.1766,0.0022,139.998,45.000,31527.00078,1.94372,401.935,33.887,45.069,45.000,0.00,0.09,-272.75,-272.81,-5,517,-933,19.4,6.0,-19.2,19.7,5.9,-19.1,5.73,1.75,-14.0,26.1
2015-10-27 00:08:00,0.0,1.93949,0.00109,401.039,0.066,0.1796,0.0015,140.000,45.000,31527.78559,1.94288,401.905,33.883,45.069,45.000,0.00,0.08,-272.76,-272.81,-7,518,-933,19.4,6.1,-19.0,19.7,6.1,-18.8,5.73,2.15,-14.0,26.1
2015-10-27 00:09:00,0.0,1.93942,0.00066,401.236,0.058,0.1758,0.0030,139.999,45.000,31529.19760,1.94281,402.087,33.877,45.069,45.000,0.00,0.09,-272.75,-272.82,-5,518,-933,19.4,6.0,-19.2,19.7,6.0,-18.8,5.73,1.78,-14.0,26.2
2015-10-27 00:10:00,0.0,1.93813,0.00094,401.348,0.048,0.1725,0.0019,139.999,45.000,31526.70559,1.94149,402.184,33.886,45.069,45.000,0.00,0.09,-272.75,-272.81,-6,518,-933,19.4,5.8,-19.4,19.7,5.9,-19.1,5.73,2.06,-14.0,26.2
2015-10-27 00:11:00,0.0,1.93845,0.00051,401.385,0.051,0.1731,0.0021,139.997,45.000,31526.58634,1.94177,402.223,33.889,45.069,45.000,0.00,0.09,-272.75,-272.82,-6,518,-933,19.4,5.8,-19.5,19.7,5.9,-19.2,5.73,1.90,-14.0,26.1
2015-10-27 00:12:00,0.0,1.93805,0.00074,401.305,0.041,0.1752,0.0019,140.001,45.000,31527.76730,1.94145,402.154,33.881,45.069,45.000,0.00,0.09,-272.76,-272.81,-5,517,-933,19.3,5.9,-19.3,19.7,5.9,-19.1,5.73,1.92,-14.1,26.1
2015-10-27 00:13:00,0.0,1.93795,0.00106,401.320,0.068,0.1746,0.0021,139.999,45.000,31526.92702,1.94124,402.167,33.875,45.069,45.000,0.00,0.09,-272.75,-272.81,-6,518,-933,19.4,5.9,-19.3,19.7,5.9,-19.0,5.73,2.05,-14.0,26.1
2015-10-27 00:14:00,0.0,1.93830,0.00081,401.336,0.064,0.1761,0.0016,139.998,45.000,31526.39799,1.94168,402.186,33.870,45.069,45.000,0.00,0.09,-272.75,-272.81,-5,518,-933,19.3,5.9,-19.3,19.7,5.9,-19.0,5.73,1.79,-14.0,26.1
2015-10-27 00:15:00,0.0,1.93843,0.00090,401.383,0.041,0.1767,0.0017,139.997,45.000,31526.25354,1.94179,402.239,33.837,45.069,45.000,0.00,0.08,-272.76,-272.81,-5,517,-933,19.3,5.9,-19.3,19.7,6.0,-19.0,5.73,2.14,-14.1,26.1
2015-10-27 00:16:00,0.0,1.93737,0.00080,401.509,0.047,0.1735,0.0018,140.000,45.000,31527.01626,1.94069,402.347,33.847,45.069,45.000,0.00,0.09,-272.74,-272.81,-6,518,-933,19.3,5.9,-19.4,19.7,5.9,-19.0,5.73,1.75,-14.1,26.1
2015-10-27 00:17:00,0.0,1.93728,0.00123,401.631,0.047,0.1739,0.0017,140.001,45.000,31525.33812,1.94061,402.473,33.817,45.069,45.000,0.00,0.09,-272.75,-272.80,-5,518,-933,19.3,5.9,-19.4,19.7,5.9,-19.1,5.73,2.13,-14.0,26.1
2015-10-27 00:18:00,0.0,1.93709,0.00090,401.654,0.034,0.1740,0.0022,140.000,45.000,31525.98999,1.94049,402.497,33.813,45.070,45.000,0.00,0.09,-272.75,-272.81,-6,517,-933,19.3,5.9,-19.4,19.7,5.9,-19.1,5.73,1.82,-14.1,26.1
2015-10-27 00:19:00,0.0,1.93549,0.00041,401.674,0.040,0.1723,0.0019,139.999,45.000,31525.23036,1.93883,402.509,33.810,45.070,45.000,0.00,0.09,-272.76,-272.80,-5,518,-933,19.3,5.8,-19.5,19.7,5.9,-19.2,5.73,2.02,-14.1,26.1
2015-10-27 00:20:00,0.0,1.93584,0.00044,401.611,0.043,0.1727,0.0019,140.000,45.000,31523.79582,1.93913,402.451,33.796,45.070,45.000,0.00,0.09,-272.74,-272.81,-5,517,-933,19.3,5.9,-19.5,19.7,5.9,-19.2,5.73,1.96,-14.1,26.0
2015-10-27 00:21:00,0.0,1.93585,0.00045,401.615,0.033,0.1737,0.0016,140.000,45.000,31524.33013,1.93917,402.455,33.798,45.070,45.000,0.00,0.09,-272.75,-272.81,-6,517,-933,19.3,5.9,-19.4,19.7,5.9,-19.2,5.73,1.87,-14.1,26.0
2015-10-27 00:22:00,0.0,1.93547,0.00053,401.606,0.043,0.1763,0.0019,140.001,45.000,31525.85933,1.93886,402.461,33.802,45.070,45.000,0.00,0.08,-272.76,-272.82,-5,518,-933,19.3,5.9,-19.3,19.7,5.9,-19.0,5.73,2.10,-14.1,26.0
2015-10-27 00:23:00,0.0,1.93626,0.00071,401.591,0.044,0.1765,0.0014,140.001,45.000,31525.26264,1.93965,402.450,33.795,45.069,45.000,0.00,0.09,-272.74,-272.81,-6,517,-933,19.3,6.0,-19.2,19.7,6.0,-19.0,5.73,1.76,-14.1,26.1
2015-10-27 00:24:00,0.0,1.93589,0.00050,401.490,0.035,0.1756,0.0023,139.999,45.000,31524.69545,1.93921,402.341,33.811,45.069,45.000,0.00,0.09,-272.75,-272.81,-6,517,-933,19.3,6.0,-19.3,19.7,6.0,-19.0,5.73,2.15,-14.1,26.0
2015-10-27 00:25:00,0.0,1.93537,0.00047,401.449,0.037,0.1748,0.0020,140.000,45.000,31525.20585,1.93871,402.296,33.812,45.069,45.000,0.00,0.09,-272.75,-272.81,-5,518,-933,19.3,5.9,-19.3,19.7,6.0,-19.0,5.73,1.77,-14.1,26.0
2015-10-27 00:26:00,0.0,1.93620,0.00039,401.473,0.027,0.1761,0.0013,139.996,45.000,31524.91288,1.93960,402.325,33.811,45.069,45.000,0.00,0.09,-272.76,-272.80,-6,517,-933,19.3,6.0,-19.3,19.7,6.0,-18.9,5.73,2.09,-14.1,26.1
2015-10-27 00:27:00,0.0,1.93666,0.00062,401.507,0.034,0.1756,0.0019,139.998,45.000,31525.67689,1.93998,402.358,33.809,45.069,45.000,0.00,0.09,-272.74,-272.81,-5,518,-933,19.4,5.9,-19.2,19.7,6.0,-19.0,5.73,1.87,-14.1,26.1
2015-10-27 00:28:00,0.0,1.93776,0.00065,401.461,0.058,0.1753,0.0019,140.000,45.000,31524.95807,1.94114,402.310,33.805,45.069,45.000,0.00,0.09,-272.76,-272.80,-5,517,-933,19.3,5.9,-19.3,19.7,6.0,-19.0,5.73,1.96,-14.1,26.0
2015-10-27 00:29:00,0.0,1.93632,0.00050,401.528,0.036,0.1752,0.0018,139.998,45.000,31525.61899,1.93967,402.377,33.804,45.069,45.000,0.00,0.09,-272.76,-272.82,-6,517,-933,19.3,5.9,-19.3,19.7,5.9,-19.0,5.73,2.02,-14.1,26.1
2015-10-27 00:30:00,0.0,1.93539,0.00084,401.509,0.044,0.1756,0.0021,139.999,45.000,31525.26573,1.93876,402.363,33.803,45.069,45.000,0.00,0.09,-272.75,-272.80,-5,518,-933,19.3,5.9,-19.3,19.7,6.0,-19.0,5.73,1.82,-14.1,26.0
2015-10-27 00:31:00,0.0,1.93528,0.00039,401.419,0.041,0.1749,0.0017,140.000,45.000,31526.47564,1.93862,402.267,33.802,45.069,45.000,0.00,0.09,-272.75,-272.81,-6,517,-933,19.4,5.9,-19.3,19.7,6.0,-19.0,5.73,2.13,-14.1,26.1
2015-10-27 00:32:00,0.0,1.93746,0.00067,401.378,0.039,0.1754,0.0016,139.999,45.000,31523.79149,1.94072,402.227,33.815,45.069,45.000,0.00,0.09,-272.75,-272.81,-6,518,-933,19.4,5.9,-19.3,19.7,6.0,-19.0,5.73,1.75,-14.1,26.1
2015-10-27 00:33:00,0.0,1.93757,0.00139,401.441,0.032,0.1734,0.0025,140.001,45.000,31523.73043,1.94086,402.280,33.823,45.069,45.000,0.00,0.09,-272.76,-272.81,-5,518,-933,19.4,5.9,-19.4,19.7,5.9,-19.1,5.73,2.15,-14.1,26.1
2015-10-27 00:34:00,0.0,1.93646,0.00111,401.441,0.049,0.1755,0.0019,139.999,45.000,31523.20862,1.93995,402.294,33.815,45.069,45.000,0.00,0.09,-272.75,-272.80,-6,517,-933,19.4,5.9,-19.2,19.7,6.0,-19.0,5.73,1.78,-14.1,26.0
2015-10-27 00:35:00,0.0,1.93592,0.00054,401.389,0.052,0.1757,0.0015,139.999,45.000,31524.61231,1.93925,402.239,33.825,45.069,45.000,0.00,0.09,-272.76,-272.81,-5,518,-933,19.4,6.0,-19.2,19.7,6.0,-19.0,5.73,2.08,-14.1,26.1
2015-10-27 00:36:00,0.0,1.93539,0.00068,401.429,0.047,0.1766,0.0022,139.999,45.000,31523.37758,1.93884,402.284,33.830,45.069,45.000,0.00,0.09,-272.75,-272.82,-6,517,-932,19.3,6.0,-19.2,19.7,6.0,-19.0,5.73,1.88,-14.1,26.0
2015-10-27 00:37:00,0.0,1.93385,0.00047,401.386,0.031,0.1775,0.0018,140.001,45.000,31523.26535,1.93727,402.247,33.870,45.069,45.000,0.00,0.09,-272.75,-272.81,-6,518,-933,19.3,6.0,-19.1,19.7,6.0,-18.9,5.73,1.96,-14.1,26.0
2015-10-27 00:38:00,0.0,1.93319,0.00041,401.398,0.032,0.1754,0.0017,140.002,45.000,31524.36862,1.93652,402.249,33.860,45.069,45.000,0.00,0.09,-272.75,-272.81,-5,518,-933,19.4,5.9,-19.3,19.7,6.0,-18.9,5.73,2.01,-14.1,26.0
2015-10-27 00:39:00,0.0,1.93314,0.00039,401.370,0.032,0.1757,0.0021,140.001,45.000,31525.31711,1.93649,402.223,33.825,45.069,45.000,0.00,0.09,-272.76,-272.81,-6,517,-933,19.4,6.0,-19.2,19.7,6.0,-18.9,5.73,1.84,-14.1,26.1
2015-10-27 00:40:00,0.0,1.93348,0.00077,401.293,0.053,0.1789,0.0017,140.002,45.000,31527.68690,1.93684,402.161,33.829,45.069,45.000,0.00,0.09,-272.75,-272.81,-5,518,-933,19.4,6.0,-19.1,19.7,6.0,-18.8,5.73,2.11,-14.1,26.0
2015-10-27 00:41:00,0.0,1.93427,0.00071,401.252,0.070,0.1767,0.0016,139.996,45.000,31524.80184,1.93772,402.106,33.827,45.069,45.000,0.00,0.09,-272.75,-272.80,-5,517,-933,19.4,6.0,-19.2,19.7,6.0,-18.9,5.73,1.76,-14.1,26.0
2015-10-27 00:42:00,0.0,1.93302,0.00041,401.340,0.040,0.1760,0.0014,139.999,45.000,31525.42938,1.93639,402.192,33.848,45.070,45.000,0.00,0.08,-272.76,-272.81,-6,518,-933,19.4,6.0,-19.2,19.7,6.0,-18.9,5.73,2.15,-14.1,26.1
2015-10-27 00:43:00,0.0,1.93300,0.00037,401.362,0.027,0.1756,0.0022,140.002,45.000,31524.06844,1.93634,402.211,33.869,45.070,45.000,0.00,0.09,-272.75,-272.81,-5,518,-933,19.4,5.9,-19.2,19.7,6.0,-19.0,5.73,1.76,-14.1,26.0
2015-10-27 00:44:00,0.0,1.93311,0.00027,401.314,0.074,0.1768,0.0023,139.997,45.000,31525.24688,1.93652,402.173,33.869,45.069,45.000,0.00,0.09,-272.75,-272.80,-6,517,-933,19.4,6.0,-19.2,19.7,6.0,-18.9,5.73,2.12,-14.1,26.1
2015-10-27 00:45:00,0.0,1.93326,0.00039,401.232,0.063,0.1792,0.0016,140.000,45.000,31525.40578,1.93667,402.099,33.875,45.069,45.000,0.00,0.09,-272.75,-272.81,-5,518,-933,19.4,6.0,-19.0,19.7,6.0,-18.8,5.73,1.83,-14.1,26.1
2015-10-27 00:46:00,0.0,1.93369,0.00072,401.335,0.032,0.1770,0.0011,139.998,45.000,31523.10508,1.93707,402.193,33.874,45.069,45.000,0.00,0.09,-272.75,-272.81,-5,517,-933,19.4,6.0,-19.1,19.7,6.0,-18.8,5.73,2.03,-14.1,26.1
2015-10-27 00:47:00,0.0,1.93342,0.00038,401.279,0.034,0.1769,0.0013,140.000,45.000,31522.78364,1.93681,402.138,33.873,45.069,45.000,0.00,0.09,-272.74,-272.81,-6,518,-933,19.4,6.0,-19.1,19.7,6.0,-18.9,5.73,1.92,-14.1,26.0
2015-10-27 00:48:00,0.0,1.93360,0.00077,401.240,0.027,0.1767,0.0019,139.999,45.000,31522.68215,1.93701,402.096,33.875,45.069,45.000,0.00,0.09,-272.75,-272.80,-5,518,-933,19.4,6.0,-19.1,19.7,6.0,-18.8,5.73,1.92,-14.1,26.0
2015-10-27 00:49:00,0.0,1.93162,0.00100,401.215,0.034,0.1708,0.0028,140.001,45.000,31524.62673,1.93487,402.042,33.888,45.069,45.000,0.00,0.08,-272.76,-272.82,-6,517,-933,19.4,5.8,-19.5,19.7,5.9,-19.1,5.73,2.04,-14.0,26.0
2015-10-27 00:50:00,0.0,1.93154,0.00070,401.152,0.040,0.1745,0.0018,140.000,45.000,31525.35626,1.93493,401.999,33.904,45.069,45.000,0.00,0.09,-272.75,-272.81,-5,518,-932,19.4,5.9,-19.3,19.7,5.9,-19.1,5.73,1.82,-14.0,26.1
2015-10-27 00:51:00,0.0,1.93136,0.00036,401.093,0.066,0.1767,0.0015,140.000,45.000,31525.28012,1.93471,401.951,33.893,45.069,45.000,0.00,0.09,-272.75,-272.81,-5,518,-933,19.4,5.9,-19.2,19.7,6.0,-19.0,5.73,2.11,-14.0,26.1
2015-10-27 00:52:00,0.0,1.93125,0.00036,401.067,0.095,0.1768,0.0016,140.001,45.000,31525.97213,1.93462,401.919,33.891,45.069,45.000,0.00,0.09,-272.75,-272.82,-6,518,-933,19.4,6.0,-19.2,19.7,6.0,-18.9,5.73,1.76,-14.1,26.1
2015-10-27 00:53:00,0.0,1.93101,0.00049,401.087,0.038,0.1764,0.0020,140.000,45.000,31526.59592,1.93440,401.943,33.914,45.069,45.000,0.00,0.08,-272.76,-272.81,-5,518,-932,19.4,6.0,-19.2,19.8,6.0,-18.9,5.73,2.15,-14.1,26.1
2015-10-27 00:54:00,0.0,1.93034,0.00052,401.035,0.030,0.1740,0.0014,140.003,45.000,31527.44240,1.93365,401.878,33.930,45.069,45.000,0.00,0.09,-272.75,-272.80,-6,517,-933,19.5,5.9,-19.3,19.7,5.9,-19.0,5.73,1.75,-14.0,26.1
2015-10-27 00:55:00,0.0,1.93069,0.00042,401.032,0.034,0.1759,0.0016,139.998,45.000,31525.88608,1.93405,401.885,33.939,45.069,45.000,0.00,0.08,-272.76,-272.81,-5,518,-932,19.5,5.9,-19.3,19.8,5.9,-19.0,5.73,2.13,-14.1,26.1
2015-10-27 00:56:00,0.0,1.93095,0.00043,401.025,0.025,0.1768,0.0019,139.998,45.000,31523.70895,1.93432,401.881,33.950,45.069,45.000,0.00,0.09,-272.76,-272.81,-5,518,-932,19.5,5.9,-19.2,19.8,6.0,-18.9,5.73,1.79,-14.0,26.1
2015-10-27 00:57:00,0.0,1.93034,0.00040,401.025,0.033,0.1747,0.0018,140.001,45.000,31527.10139,1.93365,401.870,33.966,45.069,45.000,0.00,0.09,-272.75,-272.80,-6,518,-932,19.5,5.9,-19.3,19.8,5.9,-19.0,5.73,2.07,-14.0,26.1
2015-10-27 00:58:00,0.0,1.93101,0.00048,401.009,0.043,0.1745,0.0019,139.999,45.000,31526.71969,1.93435,401.854,33.962,45.069,45.000,0.00,0.09,-272.75,-272.81,-5,518,-932,19.5,5.9,-19.3,19.8,5.9,-19.0,5.73,1.87,-14.0,26.1
2015-10-27 00:59:00,0.0,1.93133,0.00060,401.003,0.037,0.1746,0.0015,139.999,45.000,31526.43492,1.93463,401.849,33.999,45.069,45.000,0.00,0.09,-272.76,-272.81,-6,518,-932,19.5,5.9,-19.3,19.8,5.9,-19.0,5.73,1.98,-14.0,26.1
2015-10-27 01:00:00,0.0,1.93109,0.00062,400.965,0.042,0.1754,0.0021,139.999,45.000,31527.92352,1.93447,401.816,33.999,45.069,45.000,0.00,0.09,-272.75,-272.81,-5,518,-933,19.5,5.9,-19.2,19.8,5.9,-19.0,5.73,1.96,-14.0,26.1
2015-10-27 01:01:00,0.0,1.93057,0.00072,400.950,0.042,0.1773,0.0020,139.997,45.000,31527.53174,1.93400,401.808,34.000,45.069,45.000,0.00,0.09,-272.75,-272.80,-5,518,-932,19.5,6.0,-19.1,19.8,6.0,-18.9,5.73,1.89,-14.0,26.1
2015-10-27 01:02:00,0.0,1.93068,0.00079,400.945,0.033,0.1781,0.0020,139.999,45.000,31528.61054,1.93399,401.806,34.000,45.069,45.000,0.00,0.08,-272.75,-272.81,-6,518,-932,19.5,6.0,-19.1,19.8,6.0,-18.8,5.73,2.04,-14.0,26.1
2015-10-27 01:03:00,0.0,1.92952,0.00063,400.917,0.028,0.1778,0.0015,140.000,45.000,31527.70188,1.93299,401.779,34.000,45.069,45.000,0.00,0.09,-272.76,-272.81,-5,518,-932,19.5,6.0,-19.1,19.8,6.0,-18.8,5.73,1.82,-14.0,26.1
2015-10-27 01:04:00,0.0,1.92975,0.00051,400.879,0.049,0.1779,0.0018,139.998,45.000,31526.12126,1.93312,401.739,34.000,45.069,45.000,0.00,0.09,-272.75,-272.81,-6,518,-932,19.5,6.0,-19.1,19.8,6.0,-18.8,5.73,2.10,-14.0,26.1
2015-10-27 01:05:00,0.0,1.92991,0.00091,400.887,0.027,0.1767,0.0015,140.001,45.000,31528.05214,1.93332,401.743,34.002,45.069,45.000,0.00,0.09,-272.75,-272.81,-5,518,-932,19.5,5.9,-19.2,19.8,6.0,-18.8,5.73,1.77,-14.0,26.1
2015-10-27 01:06:00,0.0,1.92927,0.00065,400.866,0.055,0.1799,0.0027,139.998,45.000,31525.93711,1.93270,401.737,34.004,45.069,45.000,0.00,0.08,-272.76,-272.82,-6,518,-932,19.5,6.0,-19.0,19.8,6.0,-18.8,5.73,2.13,-14.0,26.2
2015-10-27 01:07:00,0.0,1.92893,0.00044,400.854,0.031,0.1798,0.0017,140.003,45.000,31527.26376,1.93235,401.726,34.009,45.069,45.000,0.00,0.09,-272.74,-272.80,-6,518,-932,19.5,6.0,-19.0,19.8,6.1,-18.7,5.73,1.75,-14.0,26.2
2015-10-27 01:08:00,0.0,1.92927,0.00038,400.844,0.034,0.1770,0.0031,140.000,45.000,31525.13263,1.93265,401.702,34.014,45.069,45.000,0.00,0.08,-272.75,-272.80,-5,518,-932,19.5,5.9,-19.1,19.8,6.0,-18.8,5.73,2.14,-14.0,26.2
2015-10-27 01:09:00,0.0,1.92866,0.00054,400.846,0.036,0.1783,0.0013,140.001,45.000,31524.57959,1.93202,401.710,34.007,45.069,45.000,0.00,0.09,-272.75,-272.81,-7,518,-932,19.5,6.0,-19.1,19.8,6.0,-18.8,5.73,1.74,-14.0,26.2
2015-10-27 01:10:00,0.0,1.93009,0.00095,400.794,0.035,0.1770,0.0033,140.000,45.000,31525.54878,1.93346,401.649,34.007,45.069,45.000,0.00,0.08,-272.76,-272.81,-5,518,-932,19.5,5.9,-19.2,19.8,6.0,-18.9,5.73,2.14,-14.0,26.2
2015-10-27 01:11:00,0.0,1.92890,0.00048,400.815,0.029,0.1806,0.0016,139.998,45.000,31525.84009,1.93240,401.688,34.003,45.069,45.000,0.00,0.09,-272.75,-272.80,-6,518,-932,19.5,6.0,-18.9,19.8,6.1,-18.7,5.73,1.75,-14.0,26.2
2015-10-27 01:12:00,0.0,1.92822,0.00039,400.793,0.040,0.1814,0.0019,140.003,45.000,31526.41950,1.93169,401.673,34.002,45.069,45.000,0.00,0.09,-272.76,-272.80,-5,518,-932,19.5,6.1,-18.9,19.8,6.1,-18.7,5.73,2.14,-14.0,26.2
2015-10-27 01:13:00,0.0,1.92846,0.00042,400.762,0.050,0.1774,0.0020,139.999,45.000,31524.14960,1.93185,401.619,34.003,45.069,45.000,0.00,0.09,-272.75,-272.82,-6,518,-932,19.5,6.0,-19.1,19.8,6.0,-18.8,5.73,1.76,-14.0,26.2
2015-10-27 01:14:00,0.0,1.92829,0.00044,400.770,0.038,0.1774,0.0021,140.001,45.000,31527.13643,1.93164,401.628,34.000,45.069,45.000,0.00,0.09,-272.75,-272.81,-6,518,-932,19.5,5.9,-19.2,19.8,6.0,-18.9,5.73,2.13,-14.0,26.2
2015-10-27 01:15:00,0.0,1.92848,0.00033,400.786,0.026,0.1798,0.0020,140.000,45.000,31524.45294,1.93192,401.656,33.992,45.069,45.000,0.00,0.09,-272.74,-272.81,-5,518,-932,19.5,6.0,-18.9,19.8,6.0,-18.7,5.73,1.77,-14.0,26.2
2015-10-27 01:16:00,0.0,1.92872,0.00034,400.813,0.041,0.1803,0.0024,140.000,45.000,31522.52450,1.93214,401.686,33.985,45.069,45.000,0.00,0.08,-272.76,-272.81,-7,518,-932,19.5,6.0,-19.0,19.8,6.1,-18.7,5.73,2.11,-14.0,26.2
2015-10-27 01:17:00,0.0,1.92862,0.00041,400.762,0.042,0.1807,0.0026,139.999,45.000,31523.25755,1.93206,401.637,33.992,45.069,45.000,0.00,0.09,-272.75,-272.81,-5,518,-932,19.5,6.0,-19.0,19.8,6.1,-18.7,5.73,1.78,-14.0,26.2
2015-10-27 01:18:00,0.0,1.92835,0.00042,400.736,0.031,0.1799,0.0027,139.997,45.000,31521.78190,1.93180,401.606,33.963,45.069,45.000,0.00,0.09,-272.76,-272.80,-7,518,-932,19.5,6.0,-19.0,19.8,6.0,-18.8,5.73,2.10,-14.0,26.2
2015-10-27 01:19:00,0.0,1.92770,0.00044,400.765,0.034,0.1827,0.0015,140.000,45.000,31521.41855,1.93119,401.648,33.948,45.069,45.000,0.00,0.09,-272.75,-272.81,-6,518,-932,19.5,6.1,-18.8,19.8,6.1,-18.6,5.73,1.79,-14.0,26.2
2015-10-27 01:20:00,0.0,1.92759,0.00039,400.744,0.033,0.1824,0.0018,139.999,45.000,31522.90706,1.93107,401.627,33.940,45.069,45.000,0.00,0.09,-272.76,-272.81,-6,518,-932,19.5,6.1,-18.8,19.8,6.1,-18.6,5.73,2.09,-14.0,26.2
2015-10-27 01:21:00,0.0,1.92826,0.00038,400.755,0.032,0.1840,0.0023,139.997,45.000,31520.27672,1.93172,401.645,33.933,45.069,45.000,0.00,0.09,-272.75,-272.81,-6,518,-932,19.4,6.1,-18.8,19.8,6.1,-18.6,5.73,1.81,-14.0,26.2
2015-10-27 01:22:00,0.0,1.92929,0.00045,400.726,0.038,0.1807,0.0030,139.999,45.000,31520.48649,1.93272,401.601,33.936,45.069,45.000,0.00,0.09,-272.76,-272.81,-5,518,-932,19.5,6.1,-18.9,19.8,6.1,-18.6,5.73,2.07,-14.0,26.2
2015-10-27 01:23:00,0.0,1.92844,0.00062,400.718,0.032,0.1807,0.0018,139.998,45.000,31522.20782,1.93191,401.591,33.924,45.069,45.000,0.00,0.09,-272.75,-272.81,-7,518,-932,19.5,6.1,-18.9,19.8,6.1,-18.6,5.73,1.83,-14.0,26.2
2015-10-27 01:24:00,0.0,1.92849,0.00073,400.712,0.044,0.1846,0.0019,139.999,45.000,31523.27488,1.93201,401.606,33.924,45.069,45.000,0.00,0.09,-272.76,-272.80,-5,518,-932,19.5,6.2,-18.7,19.8,6.2,-18.5,5.73,2.04,-14.0,26.2
2015-10-27 01:25:00,0.0,1.92891,0.00053,400.665,0.028,0.1851,0.0020,140.000,45.000,31523.82026,1.93245,401.561,33.929,45.069,45.000,0.00,0.09,-272.75,-272.81,-6,518,-931,19.5,6.2,-18.6,19.8,6.2,-18.4,5.73,1.86,-14.0,26.2
2015-10-27 01:26:00,0.0,1.92888,0.00074,400.698,0.030,0.1862,0.0020,139.999,45.000,31520.79681,1.93245,401.599,33.909,45.069,45.000,0.00,0.08,-272.76,-272.80,-5,518,-931,19.5,6.3,-18.6,19.8,6.3,-18.3,5.73,2.00,-14.0,26.2
2015-10-27 01:27:00,0.0,1.92764,0.00058,400.663,0.028,0.1830,0.0020,140.001,45.000,31520.07874,1.93110,401.549,33.895,45.069,45.000,0.00,0.09,-272.75,-272.81,-6,518,-931,19.4,6.2,-18.7,19.8,6.2,-18.4,5.73,1.90,-14.0,26.2
2015-10-27 01:28:00,0.0,1.92783,0.00054,400.681,0.030,0.1868,0.0013,139.999,45.000,31519.74859,1.93138,401.585,33.888,45.069,45.000,0.00,0.09,-272.75,-272.81,-6,518,-931,19.5,6.3,-18.6,19.8,6.2,-18.4,5.73,1.96,-14.0,26.2
2015-10-27 01:29:00,0.0,1.92863,0.00040,400.626,0.045,0.1843,0.0029,139.998,45.000,31519.66595,1.93214,401.519,33.887,45.069,45.000,0.00,0.09,-272.75,-272.82,-5,518,-931,19.5,6.2,-18.7,19.8,6.2,-18.4,5.73,1.94,-14.0,26.2
2015-10-27 01:30:00,0.0,1.92838,0.00049,400.649,0.028,0.1862,0.0015,139.998,45.000,31516.97282,1.93193,401.549,33.875,45.069,45.000,0.00,0.09,-272.75,-272.81,-7,518,-931,19.4,6.3,-18.6,19.8,6.2,-18.4,5.73,1.93,-14.0,26.2
2015-10-27 01:31:00,0.0,1.92742,0.00065,400.618,0.037,0.1852,0.0024,139.999,45.000,31516.90837,1.93099,401.514,33.875,45.069,45.000,0.00,0.09,-272.75,-272.81,-5,518,-931,19.4,6.2,-18.7,19.8,6.2,-18.4,5.73,1.98,-14.0,26.2
2015-10-27 01:32:00,0.0,1.92750,0.00043,400.621,0.038,0.1856,0.0027,139.997,45.000,31517.07863,1.93102,401.519,33.862,45.069,45.000,0.00,0.09,-272.75,-272.80,-6,518,-931,19.4,6.2,-18.7,19.7,6.2,-18.4,5.73,1.89,-14.0,26.2
2015-10-27 01:33:00,0.0,1.92736,0.00043,400.646,0.029,0.1857,0.0016,140.000,45.000,31517.59317,1.93088,401.545,33.841,45.069,45.000,0.00,0.08,-272.76,-272.81,-5,518,-931,19.4,6.3,-18.6,19.7,6.3,-18.4,5.73,2.01,-14.0,26.2
2015-10-27 01:34:00,0.0,1.92862,0.00089,400.628,0.031,0.1852,0.0020,140.000,45.000,31517.87194,1.93210,401.524,33.828,45.069,45.000,0.00,0.09,-272.75,-272.80,-6,518,-931,19.4,6.2,-18.7,19.7,6.3,-18.4,5.73,1.86,-14.0,26.1
2015-10-27 01:35:00,0.0,1.92893,0.00070,400.597,0.039,0.1823,0.0018,139.999,45.000,31518.88100,1.93236,401.479,33.843,45.069,45.000,0.00,0.09,-272.75,-272.81,-6,518,-931,19.4,6.2,-18.8,19.7,6.2,-18.5,5.73,2.05,-14.0,26.2
2015-10-27 01:36:00,0.0,1.92931,0.00074,400.624,0.039,0.1856,0.0020,139.996,45.000,31517.00078,1.93290,401.522,33.845,45.069,45.000,0.00,0.09,-272.76,-272.81,-5,518,-931,19.4,6.3,-18.6,19.7,6.2,-18.4,5.73,1.81,-14.0,26.2
2015-10-27 01:37:00,0.0,1.92803,0.00038,400.621,0.038,0.1848,0.0022,139.998,45.000,31517.88156,1.93158,401.513,33.868,45.069,45.000,0.00,0.09,-272.75,-272.80,-7,518,-931,19.4,6.2,-18.7,19.7,6.2,-18.4,5.73,2.09,-14.0,26.1
2015-10-27 01:38:00,0.0,1.92842,0.00045,400.670,0.024,0.1869,0.0014,140.001,45.000,31518.66660,1.93196,401.575,33.873,45.069,45.000,0.00,0.09,-272.75,-272.80,-5,518,-931,19.4,6.3,-18.6,19.7,6.3,-18.4,5.73,1.79,-14.0,26.2
2015-10-27 01:39:00,0.0,1.92814,0.00051,400.651,0.034,0.1866,0.0014,139.999,45.000,31518.65085,1.93172,401.554,33.875,45.069,45.000,0.00,0.08,-272.76,-272.81,-6,518,-931,19.4,6.3,-18.6,19.7,6.3,-18.3,5.73,2.12,-14.0,26.1
2015-10-27 01:40:00,0.0,1.92812,0.00065,400.689,0.038,0.1855,0.0020,140.000,45.000,31516.49000,1.93169,401.587,33.875,45.069,45.000,0.00,0.09,-272.75,-272.81,-6,518,-932,19.4,6.3,-18.6,19.7,6.3,-18.3,5.73,1.76,-14.0,26.1
2015-10-27 01:41:00,0.0,1.92778,0.00062,400.691,0.033,0.1836,0.0017,139.999,45.000,31516.65868,1.93127,401.580,33.874,45.069,45.000,0.00,0.09,-272.76,-272.81,-5,518,-932,19.4,6.2,-18.8,19.7,6.2,-18.4,5.73,2.14,-14.0,26.1
2015-10-27 01:42:00,0.0,1.92799,0.00068,400.710,0.036,0.1837,0.0023,139.998,45.000,31518.18424,1.93149,401.597,33.875,45.069,45.000,0.00,0.09,-272.75,-272.81,-6,518,-931,19.4,6.2,-18.7,19.7,6.2,-18.5,5.73,1.75,-14.0,26.2
2015-10-27 01:43:00,0.0,1.92849,0.00077,400.620,0.059,0.1844,0.0022,139.998,45.000,31516.58648,1.93193,401.516,33.875,45.069,45.000,0.00,0.09,-272.75,-272.82,-5,518,-932,19.4,6.2,-18.7,19.7,6.2,-18.5,5.73,2.15,-14.0,26.2
2015-10-27 01:44:00,0.0,1.92849,0.00117,400.593,0.062,0.1856,0.0025,139.998,45.000,31518.00024,1.93207,401.488,33.875,45.069,45.000,0.00,0.09,-272.75,-272.82,-7,518,-932,19.4,6.3,-18.7,19.7,6.3,-18.4,5.73,1.76,-14.0,26.2
2015-10-27 01:45:00,0.0,1.92790,0.00030,400.681,0.038,0.1855,0.0021,139.999,45.000,31515.96567,1.93143,401.580,33.875,45.069,45.000,0.00,0.09,-272.75,-272.81,-5,518,-932,19.4,6.3,-18.6,19.7,6.3,-18.4,5.73,2.13,-14.0,26.2